ASA345 KBOI-KSEA

Flight info

Callsign ASA345
Flight time 1h 1m
Altitude 36000
Route OLAAH PREIS OKINY PDT CHINS5
Aircraft B739/M-SDE2E3FGHIRWXY/LB1

Departure

Time 2026-05-04 06:07
Airport Boise Air Terminal/Gowen Field (KBOI)

Arrival

Time 2026-05-04 07:09
Airport Seattle–Tacoma International Airport (KSEA)
Time Latitude Longitude Altitude Speed Heading
2026-05-04 05:40 43.56679 -116.21924 2854 ft 0 kts 25°
2026-05-04 05:59 43.56657 -116.21939 2852 ft 4 kts 31°
2026-05-04 05:59 43.56636 -116.21961 2851 ft 4 kts 57°
2026-05-04 05:59 43.56632 -116.21987 2851 ft 2 kts 116°
2026-05-04 06:00 43.56643 -116.22020 2852 ft 4 kts 115°
2026-05-04 06:00 43.56650 -116.22040 2852 ft 0 kts 115°
2026-05-04 06:03 43.56603 -116.21899 2853 ft 12 kts 115°
2026-05-04 06:03 43.56564 -116.21785 2853 ft 13 kts 115°
2026-05-04 06:05 43.56217 -116.20979 2871 ft 15 kts 115°
2026-05-04 06:05 43.56089 -116.20900 2869 ft 12 kts 205°
2026-05-04 06:05 43.56013 -116.20949 2868 ft 12 kts 204°
2026-05-04 06:06 43.55939 -116.20996 2871 ft 12 kts 204°
2026-05-04 06:06 43.55918 -116.21088 2870 ft 11 kts 291°
2026-05-04 06:06 43.55968 -116.21236 2868 ft 36 kts 295°
2026-05-04 06:06 43.56176 -116.21839 2858 ft 102 kts 295°
2026-05-04 06:07 43.56560 -116.22959 2854 ft 154 kts 295°
2026-05-04 06:07 43.57076 -116.24480 2911 ft 190 kts 295°
2026-05-04 06:07 43.57613 -116.26118 3572 ft 185 kts 293°
2026-05-04 06:07 43.58108 -116.27791 4187 ft 191 kts 293°
2026-05-04 06:08 43.58595 -116.29493 4789 ft 195 kts 293°
2026-05-04 06:08 43.59436 -116.31062 4911 ft 217 kts 328°
2026-05-04 06:08 43.60833 -116.32077 5088 ft 239 kts 334°
2026-05-04 06:08 43.62344 -116.33152 5495 ft 249 kts 333°
2026-05-04 06:09 43.63943 -116.34313 5829 ft 268 kts 333°
2026-05-04 06:09 43.65603 -116.35542 6553 ft 272 kts 332°
2026-05-04 06:11 43.77963 -116.45027 10620 ft 335 kts 331°
2026-05-04 06:11 43.80060 -116.46657 10784 ft 356 kts 331°
2026-05-04 06:13 43.96005 -116.59123 14830 ft 388 kts 330°
2026-05-04 06:14 44.10194 -116.70282 18305 ft 403 kts 331°
2026-05-04 06:14 44.12606 -116.72303 18774 ft 406 kts 328°
2026-05-04 06:15 44.14962 -116.74500 19273 ft 409 kts 327°
2026-05-04 06:15 44.17302 -116.76762 19834 ft 409 kts 325°
2026-05-04 06:15 44.19546 -116.79225 20329 ft 413 kts 322°
2026-05-04 06:15 44.21770 -116.81798 20721 ft 418 kts 321°
2026-05-04 06:16 44.24005 -116.84422 21133 ft 422 kts 321°
2026-05-04 06:16 44.26260 -116.87073 21572 ft 425 kts 321°
2026-05-04 06:16 44.28530 -116.89729 22035 ft 428 kts 322°
2026-05-04 06:16 44.30826 -116.92404 22456 ft 432 kts 322°
2026-05-04 06:17 44.33142 -116.95094 22861 ft 435 kts 322°
2026-05-04 06:17 44.35448 -116.97766 23282 ft 439 kts 322°
2026-05-04 06:17 44.37803 -117.00495 23640 ft 442 kts 322°
2026-05-04 06:17 44.40175 -117.03244 24026 ft 444 kts 322°
2026-05-04 06:18 44.42554 -117.06003 24448 ft 445 kts 322°
2026-05-04 06:18 44.44826 -117.08643 24823 ft 447 kts 322°
2026-05-04 06:18 44.47222 -117.11428 25198 ft 449 kts 322°
2026-05-04 06:20 44.64239 -117.31306 27746 ft 462 kts 322°
2026-05-04 06:20 44.66705 -117.34200 28127 ft 463 kts 322°
2026-05-04 06:21 44.76592 -117.45837 29930 ft 460 kts 322°
2026-05-04 06:21 44.79035 -117.48722 30374 ft 458 kts 322°
2026-05-04 06:22 44.81475 -117.51605 30738 ft 458 kts 322°
2026-05-04 06:22 44.83912 -117.54487 31121 ft 456 kts 322°
2026-05-04 06:25 45.15125 -117.91713 35095 ft 447 kts 321°
2026-05-04 06:25 45.17321 -117.94836 35350 ft 450 kts 311°
2026-05-04 06:26 45.19249 -117.98334 35572 ft 450 kts 310°
2026-05-04 06:26 45.21103 -118.01829 35778 ft 450 kts 309°
2026-05-04 06:26 45.22976 -118.05391 35945 ft 451 kts 309°
2026-05-04 06:27 45.32458 -118.23200 35944 ft 448 kts 310°
2026-05-04 06:28 45.36225 -118.30237 35926 ft 446 kts 310°
2026-05-04 06:28 45.39973 -118.37257 35945 ft 445 kts 310°
2026-05-04 06:29 45.43714 -118.44284 35935 ft 445 kts 310°
2026-05-04 06:29 45.47426 -118.51275 35926 ft 446 kts 310°
2026-05-04 06:30 45.51164 -118.58334 35919 ft 447 kts 310°
2026-05-04 06:30 45.54911 -118.65425 35897 ft 448 kts 310°
2026-05-04 06:31 45.58665 -118.72550 35891 ft 450 kts 310°
2026-05-04 06:31 45.62425 -118.79702 35893 ft 451 kts 310°
2026-05-04 06:33 45.78022 -119.07758 35847 ft 448 kts 315°
2026-05-04 06:34 45.82082 -119.14534 35850 ft 447 kts 314°
2026-05-04 06:34 45.86104 -119.21332 35848 ft 446 kts 314°
2026-05-04 06:36 46.01336 -119.47325 35841 ft 443 kts 314°
2026-05-04 06:37 46.05186 -119.53930 35836 ft 442 kts 314°
2026-05-04 06:37 46.09037 -119.60554 35832 ft 442 kts 314°
2026-05-04 06:38 46.12977 -119.67348 35833 ft 442 kts 314°
2026-05-04 06:40 46.28699 -119.94624 35830 ft 442 kts 314°
2026-05-04 06:40 46.30662 -119.98047 35654 ft 445 kts 314°
2026-05-04 06:40 46.32663 -120.01535 34982 ft 453 kts 314°
2026-05-04 06:41 46.34667 -120.05039 34269 ft 452 kts 314°
2026-05-04 06:41 46.36671 -120.08551 33505 ft 453 kts 313°
2026-05-04 06:41 46.38680 -120.12075 32671 ft 454 kts 313°
2026-05-04 06:41 46.40688 -120.15603 31985 ft 452 kts 313°
2026-05-04 06:42 46.42671 -120.19094 31470 ft 447 kts 313°
2026-05-04 06:42 46.44636 -120.22555 30915 ft 443 kts 313°
2026-05-04 06:42 46.46582 -120.25986 30385 ft 438 kts 313°
2026-05-04 06:44 46.59329 -120.48983 26661 ft 411 kts 308°
2026-05-04 06:44 46.60939 -120.52388 26149 ft 408 kts 307°
2026-05-04 06:44 46.62525 -120.55795 25644 ft 405 kts 307°
2026-05-04 06:45 46.64100 -120.59169 25136 ft 402 kts 307°
2026-05-04 06:45 46.65580 -120.62318 24679 ft 399 kts 307°
2026-05-04 06:45 46.67115 -120.65567 24199 ft 397 kts 307°
2026-05-04 06:45 46.68664 -120.68831 23687 ft 396 kts 307°
2026-05-04 06:46 46.70231 -120.72131 23148 ft 395 kts 307°
2026-05-04 06:46 46.71717 -120.75259 22629 ft 393 kts 307°
2026-05-04 06:46 46.73264 -120.78522 22116 ft 390 kts 307°
2026-05-04 06:46 46.74785 -120.81733 21635 ft 387 kts 307°
2026-05-04 06:48 46.85071 -121.03548 18415 ft 372 kts 306°
2026-05-04 06:48 46.86511 -121.06616 17904 ft 371 kts 306°
2026-05-04 06:49 46.87917 -121.09615 17499 ft 366 kts 306°
2026-05-04 06:50 46.97520 -121.30187 14375 ft 351 kts 305°
2026-05-04 06:51 46.98890 -121.33134 13945 ft 349 kts 305°
2026-05-04 06:51 47.00252 -121.36068 13457 ft 348 kts 305°
2026-05-04 06:51 47.01608 -121.38991 12968 ft 346 kts 305°
2026-05-04 06:51 47.02956 -121.41901 12530 ft 343 kts 305°
2026-05-04 06:52 47.04274 -121.44748 12392 ft 332 kts 305°
2026-05-04 06:52 47.05501 -121.47402 12230 ft 322 kts 305°
2026-05-04 06:52 47.06737 -121.50077 12106 ft 312 kts 305°
2026-05-04 06:52 47.07939 -121.52682 11903 ft 305 kts 305°
2026-05-04 06:53 47.09117 -121.55238 11666 ft 300 kts 305°
2026-05-04 06:53 47.10215 -121.57621 11437 ft 295 kts 305°
2026-05-04 06:53 47.11355 -121.60098 11197 ft 293 kts 304°
2026-05-04 06:53 47.12464 -121.62509 10985 ft 292 kts 304°
2026-05-04 06:54 47.13595 -121.64969 10755 ft 291 kts 304°
2026-05-04 06:54 47.14725 -121.67432 10522 ft 291 kts 304°
2026-05-04 06:54 47.15855 -121.69898 10277 ft 290 kts 303°
2026-05-04 06:54 47.16970 -121.72331 10033 ft 286 kts 303°
2026-05-04 06:55 47.18072 -121.74736 9807 ft 282 kts 303°
2026-05-04 06:55 47.19156 -121.77106 9559 ft 278 kts 303°
2026-05-04 06:55 47.20230 -121.79458 9324 ft 276 kts 303°
2026-05-04 06:55 47.21301 -121.81804 9087 ft 276 kts 304°
2026-05-04 06:56 47.22370 -121.84148 8857 ft 276 kts 304°
2026-05-04 06:57 47.29832 -122.00559 7251 ft 269 kts 305°
2026-05-04 06:58 47.30864 -122.02836 7020 ft 265 kts 304°
2026-05-04 06:58 47.31877 -122.05076 6813 ft 261 kts 304°
2026-05-04 06:58 47.32877 -122.07277 6590 ft 257 kts 304°
2026-05-04 06:58 47.33863 -122.09447 6391 ft 252 kts 305°
2026-05-04 06:59 47.34832 -122.11582 6179 ft 249 kts 305°
2026-05-04 06:59 47.35772 -122.13666 6025 ft 238 kts 304°
2026-05-04 06:59 47.36649 -122.15667 6002 ft 225 kts 297°
2026-05-04 06:59 47.36944 -122.17828 6003 ft 216 kts 263°
2026-05-04 07:01 47.27562 -122.20411 4326 ft 214 kts 175°
2026-05-04 07:01 47.26080 -122.20212 4032 ft 213 kts 175°
2026-05-04 07:02 47.24589 -122.20011 4036 ft 218 kts 175°
2026-05-04 07:02 47.23082 -122.19825 4008 ft 216 kts 180°
2026-05-04 07:02 47.21677 -122.20382 3996 ft 209 kts 217°
2026-05-04 07:02 47.20779 -122.22016 3988 ft 209 kts 253°
2026-05-04 07:03 47.20610 -122.24118 4015 ft 210 kts 273°
2026-05-04 07:03 47.20681 -122.26296 3993 ft 214 kts 283°
2026-05-04 07:03 47.21292 -122.28191 4006 ft 202 kts 313°
2026-05-04 07:03 47.22249 -122.29713 4001 ft 204 kts 314°
2026-05-04 07:04 47.23214 -122.31239 3994 ft 204 kts 315°
2026-05-04 07:04 47.24199 -122.32719 3999 ft 201 kts 324°
2026-05-04 07:04 47.25469 -122.33420 4007 ft 196 kts 359°
2026-05-04 07:04 47.26832 -122.33334 4001 ft 197 kts
2026-05-04 07:05 47.28182 -122.33005 3973 ft 197 kts 17°
2026-05-04 07:05 47.29475 -122.32392 3766 ft 194 kts 17°
2026-05-04 07:05 47.30729 -122.31932 3635 ft 178 kts
2026-05-04 07:05 47.31918 -122.31944 3487 ft 168 kts 359°
2026-05-04 07:06 47.34346 -122.31913 3095 ft 172 kts
2026-05-04 07:06 47.35554 -122.31864 2625 ft 174 kts
2026-05-04 07:06 47.36763 -122.31841 2187 ft 174 kts 359°
2026-05-04 07:07 47.37981 -122.31854 1702 ft 176 kts
2026-05-04 07:08 47.45392 -122.31798 393 ft 81 kts
2026-05-04 07:09 47.45744 -122.31782 393 ft 28 kts 12°
2026-05-04 07:09 47.45901 -122.31693 393 ft 23 kts 31°
2026-05-04 07:09 47.46000 -122.31516 393 ft 22 kts 70°
2026-05-04 07:09 47.46012 -122.31319 393 ft 17 kts 91°
2026-05-04 07:10 47.46012 -122.31264 393 ft 0 kts 91°
2026-05-04 07:12 47.46011 -122.31236 393 ft 6 kts 90°
2026-05-04 07:12 47.46011 -122.31139 393 ft 13 kts 90°
2026-05-04 07:12 47.46010 -122.30989 393 ft 15 kts 90°
2026-05-04 07:12 47.46010 -122.30834 393 ft 15 kts 90°
2026-05-04 07:13 47.46009 -122.30694 393 ft 12 kts 93°
2026-05-04 07:13 47.45955 -122.30623 393 ft 11 kts 175°
2026-05-04 07:13 47.45865 -122.30622 393 ft 16 kts 180°
2026-05-04 07:14 47.45326 -122.30627 393 ft 19 kts 180°
2026-05-04 07:14 47.45199 -122.30628 393 ft 18 kts 180°
2026-05-04 07:15 47.45093 -122.30629 393 ft 11 kts 180°
2026-05-04 07:15 47.45034 -122.30580 393 ft 10 kts 120°
2026-05-04 07:15 47.44975 -122.30534 393 ft 10 kts 178°
2026-05-04 07:15 47.44903 -122.30536 393 ft 12 kts 181°
2026-05-04 07:16 47.44816 -122.30522 393 ft 13 kts 146°
2026-05-04 07:16 47.44775 -122.30442 393 ft 8 kts 139°
2026-05-04 07:16 47.44727 -122.30424 393 ft 6 kts 180°
2026-05-04 07:16 47.44703 -122.30424 393 ft 2 kts 180°
2026-05-04 07:17 47.44695 -122.30424 393 ft 0 kts 180°